Home   Weather   Eidsvoll   Past weeks

Flag for Norway Past Weather in Eidsvoll, Norway — Yesterday and Last 2 Weeks

43 °F


Feels Like: 39 °F
Forecast: 37 / 43 °F
Wind: 6 mph from Southwest

Location: Oslo Gardermoen Airport

Current Time: Oct 27, 2016 at 5:16:13 AM

Latest Report: Oct 27, 2016 at 4:50 AM

Visibility: 10 mi

Pressure: 29.92 "Hg

Humidity: 93%

Dew Point: 41 °F

Location of EidsvollLocation

Past Weather in Eidsvoll — Graph


Eidsvoll Temperature Yesterday

Maximum temperature yesterday: 46 °F (at 11:20 PM)
Minimum temperature yesterday: 30 °F (at 5:50 AM)
Average temperature yesterday: 37 °F

High & Low Weather Summary for the Past Weeks

High46 °F (Oct 26, 11:20 PM)100% (Oct 17, 9:20 AM)30.57 "Hg (Oct 17, 9:20 AM)
Low30 °F (Oct 14, 3:50 AM)65% (Oct 13, 4:50 PM)29.92 "Hg (Oct 27, 12:20 AM)
Average38 °F86%30.33 "Hg
* Reported Oct 12 3:20 AM — Oct 27 3:50 AM, Eidsvoll, Weather by CustomWeather, © 2016

Note: Actual official high and low records may vary slightly from our data, if they occured in-between our weather recording intervals... More about our weather records


Eidsvoll Weather History for the Previous 24 Hours

Scroll right to see more
Time TempWeatherWind HumidityBarometerVisibility
3:50 AM
Thu, Oct 27
43 °FPassing clouds.2 mph93%29.92 "HgN/A
3:20 AM43 °FPassing clouds.5 mph87%29.92 "HgN/A
2:50 AM46 °FPassing clouds.5 mph87%29.92 "HgN/A
2:20 AM46 °FPassing clouds.7 mph93%29.92 "HgN/A
1:50 AM46 °FPartly cloudy.8 mph93%29.92 "HgN/A
1:20 AM46 °FPartly cloudy.7 mph93%29.92 "HgN/A
12:50 AM46 °FMostly cloudy.7 mph100%29.92 "Hg6 mi
12:20 AM46 °FLow clouds.9 mph93%29.92 "Hg4 mi
11:50 PM
Wed, Oct 26
46 °FFog.12 mph93%29.95 "Hg3 mi
11:20 PM46 °FLight rain. Fog.12 mph93%29.95 "Hg3 mi
10:50 PM45 °FDrizzle. Fog.14 mph100%29.95 "Hg2 mi
10:20 PM45 °FLight rain. Fog.9 mph100%29.95 "Hg3 mi
9:50 PM45 °FDrizzle. Fog.12 mph100%29.95 "Hg3 mi
9:20 PM45 °FDrizzle. Low clouds.13 mph93%29.98 "Hg4 mi
8:50 PM45 °FDrizzle. Low clouds.12 mph93%29.98 "Hg4 mi
8:20 PM45 °FDrizzle. Low clouds.12 mph93%29.98 "Hg5 mi
7:50 PM43 °FLight rain. Low clouds.12 mph100%29.98 "HgN/A
7:20 PM43 °FLight rain. Low clouds.10 mph93%30.01 "HgN/A
6:50 PM43 °FLight rain. Passing clouds.12 mph93%30.01 "HgN/A
6:20 PM43 °FLight rain. Low clouds.12 mph93%30.04 "HgN/A
5:50 PM41 °FSprinkles. Mostly cloudy.9 mph93%30.04 "HgN/A
5:20 PM41 °FSprinkles. Broken clouds.6 mph93%30.07 "HgN/A
4:50 PM41 °FSprinkles. Partly sunny.7 mph87%30.07 "HgN/A
4:20 PM41 °FSprinkles. Partly sunny.8 mph87%30.09 "HgN/A
3:50 PM39 °FPartly sunny.8 mph93%30.09 "HgN/A
3:20 PM39 °FBroken clouds.8 mph93%30.09 "HgN/A
2:50 PM41 °FBroken clouds.9 mph87%30.12 "HgN/A
2:20 PM39 °FBroken clouds.6 mph93%30.12 "HgN/A
1:50 PM37 °FBroken clouds.7 mph100%30.12 "HgN/A
1:20 PM37 °FBroken clouds.8 mph93%30.15 "HgN/A
12:50 PM36 °FPartly sunny.6 mph100%30.15 "HgN/A
12:20 PM36 °FLow clouds.7 mph100%30.15 "Hg6 mi
11:50 AM36 °FLow clouds.5 mph93%30.15 "Hg4 mi
11:20 AM34 °FFog.3 mph100%30.18 "Hg4 mi
10:50 AM34 °FFog.5 mph100%30.18 "Hg1 mi
10:20 AM34 °FFog.No wind93%30.18 "Hg1 mi
9:50 AM32 °FFog.No wind100%30.18 "Hg1 mi
9:20 AM32 °FIce fog.No wind93%30.18 "Hg1 mi
8:50 AM32 °FIce fog.No wind93%30.18 "Hg1 mi
8:20 AM32 °FChilly.No wind93%30.18 "Hg1 mi
7:50 AM30 °FIce fog.No wind100%30.21 "Hg1 mi
7:20 AM30 °FIce fog.No wind100%30.21 "Hg1 mi
6:50 AM30 °FIce fog.No wind100%30.21 "Hg1 mi
6:20 AM30 °FChilly.1 mph100%30.21 "Hg1 mi
5:50 AM30 °FIce fog.1 mph100%30.21 "Hg1 mi
5:20 AM32 °FIce fog.1 mph93%30.21 "Hg1 mi
Weather by CustomWeather, © 2016

See weather overviewHow to use our weather pages